Location: Newport
(44.6370°N, 124.0520°W)
Time: 15:31:01
(UTC-07:00)

Vanguard 3 - Visible Passes

Search period start: 21 March 2019 00:00
Search period end: 31 March 2019 00:00
Orbit: 510 x 3262 km, 33.3° (Epoch: 20 March)

Date Brightness Start Highest point End Pass type
(mag) Time Alt. Az. Time Alt. Az. Time Alt. Az.
21 Mar 9.1 19:51:59 10° WSW 19:58:13 38° S 20:08:38 10° ESE visible
21 Mar 9.9 22:02:59 10° WSW 22:10:51 30° SSW 22:14:51 26° S visible
22 Mar 10.8 00:17:56 10° WSW 00:19:24 12° SW 00:19:24 12° SW visible
22 Mar 9.5 20:49:34 10° WSW 20:56:19 33° S 21:05:00 15° SE visible
22 Mar 10.4 23:02:02 10° WSW 23:09:17 20° SSW 23:09:34 20° SSW visible
23 Mar 9.9 21:47:46 10° WSW 21:54:36 25° SSW 21:59:47 19° SSE visible
24 Mar 9.5 20:34:17 10° WSW 20:40:14 28° S 20:49:28 10° SE visible
24 Mar 10.5 22:47:30 10° WSW 22:52:58 15° SSW 22:54:36 15° SSW visible
25 Mar 10.1 21:32:48 10° WSW 21:38:26 20° SSW 21:44:54 12° SSE visible
26 Mar 9.6 20:19:09 10° WSW 20:24:15 23° SSW 20:31:41 10° SSE visible
26 Mar 10.6 22:34:33 10° SW 22:36:45 11° SSW 22:39:11 10° SSW visible
27 Mar 10.2 21:18:18 10° SW 21:22:23 15° SSW 21:27:33 10° S visible
28 Mar 9.8 20:04:15 10° SW 20:08:19 17° SSW 20:13:47 10° SSE visible
